Regional Weather Roundup
Issued by NWS Sterling, VA

Home | Current Version | Previous Version | Text Only | Print | Product List | Glossary Off
Versions: 1 2 3 4 5 6 7 8 9 10 11 12 13 14 15 16 17 18 19 20 21 22 23 24 25 26 27 28 29 30 31 32 33 34 35 36 37 38 39 40 41 42 43 44 45 46 47 48 49 50

000
ASUS41 KLWX 300210
RWRLWX

REGIONAL WEATHER ROUNDUP
NATIONAL WEATHER SERVICE BALTIMORE MD/WASHINGTON DC
1000 PM EDT WED JUL 29 2015

Note: "FAIR" indicates few or no clouds below 12,000 feet
with no significant weather and/or obstructions to visibility.
 TC=TEMPERATURE CELSIUS

 * =Non NWS site. Station does not report precipitation (e.g. rain,
    snow, etc.), thunder, or fog.

DCZ001-MDZ009-015-VAZ040>042-051-053>054-300300-
WASHINGTON METRO

CITY           SKY/WX    TMP DP  RH WIND       PRES   REMARKS
WASHINGTON NAT CLOUDY    84  72  67 S9        29.97R
DULLES         PTCLDY    79  72  79 S7        29.97R
ANDREWS AFB    CLEAR     79  72  77 S6        29.97R
FT BELVOIR     PTCLDY    79  72  78 SE1       29.97R
QUANTICO       MOCLDY    83  73  72 SW7       29.97R
COLLEGE PARK*  CLEAR     82  70  65 CALM      29.97R
LEESBURG*      CLEAR     81  77  89 S10       29.98R
MANASSAS*      PTCLDY    77  75  94 S3        29.97R
GAITHERSBURG*  PTCLDY    81  70  69 S6        30.01R

$$

MDZ006>007-011-014-300300-
BALTIMORE METRO

CITY           SKY/WX    TMP DP  RH WIND       PRES   REMARKS
BWI AIRPORT    PTCLDY    78  74  87 CALM      29.96R
MD SCIENCE CTR   N/A     80  76  87 MISG      29.96R
MARTIN STATE   PTCLDY    82  79  89 S7        29.97R HX  93
ANNAPOLIS      CLEAR     81  74  79 S7        29.96R
FORT MEADE*    PTCLDY    73  72  94 CALM      29.99R

$$

MDZ012-015-019>023-300300-
MARYLAND EASTERN SHORE

CITY           SKY/WX    TMP DP  RH WIND       PRES   REMARKS
OCEAN CITY     CLEAR     79  73  82 SW8       30.00R
SALISBURY      CLEAR     76  72  87 S7        29.99R
BAY BRIDGE AP*   N/A     81  73  78 S7        29.97R
CAMBRIDGE*     CLEAR     81  72  74 S8        29.97S
EASTON*        CLEAR     82  74  77 SW6       30.01R

$$

MDZ017>025-300300-
SOUTHERN MARYLAND

CITY           SKY/WX    TMP DP  RH WIND       PRES   REMARKS
PATUXENT RIVER PTCLDY    78  71  79 S7        29.97R
ST INIGOES     PTCLDY    80  71  74 S8        29.97R
LEONARDTOWN*   PTCLDY    77  72  83 CALM      30.00R

$$

MDZ003>005-300300-
NORTH CENTRAL MARYLAND

CITY           SKY/WX    TMP DP  RH WIND       PRES   REMARKS
FREDERICK*     CLEAR     79  73  83 S5        29.98R
HAGERSTOWN APT CLEAR     82  73  74 S9        29.95S
WESTMINSTER*   CLEAR     79  75  89 S7        29.98R

$$

MDZ501>502-300300-
WESTERN MARYLAND

CITY           SKY/WX    TMP DP  RH WIND       PRES   REMARKS
OAKLAND*       CLOUDY    68 N/A N/A CALM      30.09R
CUMBERLAND*    CLEAR     77  72  83 CALM      30.00R

$$

VAZ025>031-300300-
SHENANDOAH VALLEY

CITY           SKY/WX    TMP DP  RH WIND       PRES   REMARKS
WINCHESTER*    PTCLDY    81  75  83 S3        29.96S
FRONT ROYAL*   FAIR      79  73  83 CALM      29.96R
LURAY*         FAIR      81  73  78 SW3       29.99R
NEW MARKET*    FAIR      77  74  91 CALM      29.97R
STAUNTON*      MOCLDY    82  74  77 CALM      30.03R
WAYNESBORO*    FAIR      77  73  86 S9        30.03R

$$

WVZ021-048>050-054>055-300300-
EASTERN WEST VIRGINIA PANHANDLE

CITY           SKY/WX    TMP DP  RH WIND       PRES   REMARKS
MARTINSBURG    PTCLDY    79  74  84 SE6       29.95S
PETERSBURG*    MOCLDY   N/A N/A N/A W3        29.99R

$$

VAZ036>039-050-300300-
CENTRAL FOOTHILLS

CITY           SKY/WX    TMP DP  RH WIND       PRES   REMARKS
CHARLOTTESVILL MOCLDY    81  74  79 S6        29.99R
CULPEPER*      PTCLDY    76  73  92 CALM      29.98R
ORANGE*        PTCLDY    79  75  89 CALM      30.00R
GORDONSVILLE*  MOCLDY    77  75  94 CALM      29.98R
WARRENTON*     FAIR      79  74  85 S6        29.97S

$$

VAZ055>057-300300-
NORTH AND CENTRAL PIEDMONT

CITY           SKY/WX    TMP DP  RH WIND       PRES   REMARKS
FREDERICKSBRG* CLEAR     79  75  86 CALM      29.97R
STAFFORD*      CLEAR     75  71  87 CALM      30.02R

$$

NCZ024-NYZ072-PAZ021-071-VAZ022-071-300300-
OTHER REGIONAL OBSERVATIONS

CITY           SKY/WX    TMP DP  RH WIND       PRES   REMARKS
NEW YORK CITY  CLEAR     86  70  58 VRB7      29.96R HX  90
PHILADELPHIA   MOCLDY    82  72  71 S7        29.96R
PITTSBURGH     MOCLDY    82  70  66 SW3       29.95R
ROANOKE        PTCLDY    79  74  84 E6        30.04R
RICHMOND       PTCLDY    80  75  84 SE6       29.98R
RALEIGH        PTCLDY    82  68  62 SE3       29.99R

$$

ANZ530>537-300300-
MARINE OBSERVATIONS

STATION/POSITION TIME  TEMP    WIND        PRES
                       AIR SEA DIR/SP/G
                 (UTC) (F)     (DEG/KT/KT) (MB)
THOMAS PT LIGHT  0200          180/ 13       N/A
BALT KEY BRIDGE  0118   82                   N/A
COVE POINT       0118   82                   N/A
LEWISETTA        0118   80                   N/A
SOLOMONS ISLAND  0130      84                N/A

$$



USA.gov is the U.S. government's official web portal to all federal, state and local government web resources and services.